TimeCDT,TemperatureF,Dew PointF,Humidity,Sea Level PressureIn,VisibilityMPH,Wind Direction,Wind SpeedMPH,Gust SpeedMPH,PrecipitationIn,Events,Conditions,WindDirDegrees,DateUTC
12:35 AM,51.8,46.4,82,29.67,10.0,West,10.4,-,N/A,,Overcast,260,2012-10-21 05:35:00
12:55 AM,51.8,46.4,82,29.68,10.0,WSW,13.8,-,N/A,,Overcast,240,2012-10-21 05:55:00
1:15 AM,51.8,48.2,88,29.69,7.0,SSW,11.5,-,N/A,Rain,Light Rain,210,2012-10-21 06:15:00
1:35 AM,51.8,48.2,88,29.69,10.0,SSW,10.4,-,0.01,Rain,Light Rain,200,2012-10-21 06:35:00
1:55 AM,50.0,48.2,94,29.70,10.0,SSW,9.2,-,0.01,,Overcast,200,2012-10-21 06:55:00
2:15 AM,50.0,48.2,94,29.70,9.0,South,8.1,-,N/A,Rain,Light Rain,190,2012-10-21 07:15:00
2:35 AM,50.0,48.2,94,29.70,9.0,South,9.2,-,0.01,Rain,Light Rain,180,2012-10-21 07:35:00
2:55 AM,50.0,48.2,94,29.70,10.0,South,5.8,-,0.01,,Mostly Cloudy,190,2012-10-21 07:55:00
3:15 AM,50.0,46.4,87,29.71,10.0,WNW,5.8,-,N/A,,Overcast,290,2012-10-21 08:15:00
3:35 AM,48.2,48.2,100,29.72,10.0,West,5.8,-,N/A,,Overcast,260,2012-10-21 08:35:00
3:55 AM,48.2,48.2,100,29.74,10.0,WSW,6.9,-,N/A,Rain,Light Rain,250,2012-10-21 08:55:00
4:15 AM,48.2,44.6,87,29.75,10.0,NW,13.8,-,N/A,Rain,Light Rain,310,2012-10-21 09:15:00
4:35 AM,48.2,41.0,76,29.76,10.0,NNW,13.8,-,N/A,Rain,Light Rain,330,2012-10-21 09:35:00
5:15 AM,46.4,39.2,76,29.77,10.0,NW,9.2,-,N/A,,Overcast,310,2012-10-21 10:15:00
5:55 AM,46.4,39.2,76,29.79,10.0,NNW,6.9,-,N/A,,Overcast,340,2012-10-21 10:55:00
6:15 AM,44.6,39.2,81,29.80,10.0,North,8.1,-,N/A,Rain,Light Rain,10,2012-10-21 11:15:00
6:35 AM,44.6,39.2,81,29.82,10.0,North,5.8,-,N/A,,Overcast,360,2012-10-21 11:35:00
6:55 AM,44.6,39.2,81,29.83,10.0,NNW,3.5,-,N/A,,Overcast,340,2012-10-21 11:55:00
7:15 AM,44.6,39.2,81,29.83,10.0,NW,3.5,-,N/A,,Mostly Cloudy,320,2012-10-21 12:15:00
7:35 AM,44.6,39.2,81,29.83,10.0,North,4.6,-,N/A,,Overcast,350,2012-10-21 12:35:00
7:55 AM,44.6,37.4,76,29.85,10.0,North,10.4,-,N/A,,Overcast,350,2012-10-21 12:55:00
8:15 AM,44.6,37.4,76,29.86,10.0,North,6.9,-,N/A,,Overcast,350,2012-10-21 13:15:00
8:35 AM,44.6,37.4,76,29.88,10.0,North,9.2,-,N/A,,Overcast,350,2012-10-21 13:35:00
8:55 AM,44.6,37.4,76,29.89,10.0,North,4.6,-,N/A,,Overcast,360,2012-10-21 13:55:00
9:15 AM,42.8,37.4,81,29.90,10.0,North,6.9,-,N/A,,Overcast,360,2012-10-21 14:15:00
9:35 AM,42.8,35.6,76,29.91,10.0,North,3.5,-,N/A,,Overcast,360,2012-10-21 14:35:00
9:55 AM,42.8,35.6,76,29.93,10.0,NNE,4.6,-,N/A,,Overcast,20,2012-10-21 14:55:00
10:15 AM,41.0,35.6,81,29.93,10.0,North,9.2,-,N/A,,Overcast,360,2012-10-21 15:15:00
10:35 AM,42.8,35.6,76,29.94,10.0,North,5.8,-,N/A,,Overcast,10,2012-10-21 15:35:00
10:55 AM,42.8,35.6,76,29.95,10.0,North,8.1,-,N/A,,Overcast,10,2012-10-21 15:55:00
11:15 AM,44.6,35.6,71,29.95,10.0,NNE,8.1,-,N/A,,Overcast,30,2012-10-21 16:15:00
11:35 AM,44.6,35.6,71,29.95,10.0,NNE,10.4,-,N/A,,Mostly Cloudy,20,2012-10-21 16:35:00
11:55 AM,46.4,35.6,66,29.96,10.0,North,10.4,-,N/A,,Mostly Cloudy,360,2012-10-21 16:55:00
12:15 PM,46.4,35.6,66,29.96,10.0,NNE,10.4,-,N/A,,Scattered Clouds,20,2012-10-21 17:15:00
12:35 PM,46.4,35.6,66,29.96,10.0,NNE,9.2,-,N/A,,Clear,20,2012-10-21 17:35:00
12:55 PM,48.2,33.8,58,29.96,10.0,North,10.4,-,N/A,,Clear,350,2012-10-21 17:55:00
1:15 PM,48.2,32.0,54,29.96,10.0,North,10.4,-,N/A,,Clear,360,2012-10-21 18:15:00
1:35 PM,48.2,32.0,54,29.96,10.0,North,8.1,-,N/A,,Clear,350,2012-10-21 18:35:00
1:55 PM,50.0,32.0,50,29.96,10.0,NNW,11.5,16.1,N/A,,Clear,340,2012-10-21 18:55:00
2:15 PM,50.0,32.0,50,29.96,10.0,North,10.4,-,N/A,,Clear,350,2012-10-21 19:15:00
2:35 PM,50.0,32.0,50,29.96,10.0,North,11.5,17.3,N/A,,Clear,350,2012-10-21 19:35:00
2:55 PM,50.0,32.0,50,29.96,10.0,North,12.7,-,N/A,,Clear,350,2012-10-21 19:55:00
3:15 PM,48.2,32.0,54,29.97,10.0,North,10.4,-,N/A,,Clear,350,2012-10-21 20:15:00
3:35 PM,50.0,32.0,50,29.97,10.0,North,11.5,-,N/A,,Clear,360,2012-10-21 20:35:00
3:55 PM,48.2,32.0,54,29.98,10.0,NNW,10.4,-,N/A,,Clear,340,2012-10-21 20:55:00
4:15 PM,50.0,30.2,47,29.98,10.0,NNW,10.4,-,N/A,,Clear,340,2012-10-21 21:15:00
4:35 PM,48.2,30.2,50,29.98,10.0,North,11.5,-,N/A,,Clear,10,2012-10-21 21:35:00
4:55 PM,48.2,30.2,50,29.98,10.0,North,9.2,-,N/A,,Clear,360,2012-10-21 21:55:00
5:15 PM,48.2,30.2,50,29.98,10.0,North,8.1,-,N/A,,Clear,350,2012-10-21 22:15:00
5:35 PM,48.2,28.4,46,29.99,10.0,North,8.1,-,N/A,,Scattered Clouds,360,2012-10-21 22:35:00
5:55 PM,48.2,28.4,46,29.99,10.0,North,8.1,-,N/A,,Mostly Cloudy,10,2012-10-21 22:55:00
6:15 PM,48.2,28.4,46,30.00,10.0,NNE,4.6,-,N/A,,Mostly Cloudy,20,2012-10-21 23:15:00
6:35 PM,46.4,28.4,50,30.01,10.0,North,4.6,-,N/A,,Mostly Cloudy,350,2012-10-21 23:35:00
6:55 PM,46.4,30.2,53,30.02,10.0,NNE,3.5,-,N/A,,Mostly Cloudy,20,2012-10-21 23:55:00
7:15 PM,42.8,32.0,66,30.03,10.0,Calm,Calm,-,N/A,,Mostly Cloudy,0,2012-10-22 00:15:00
7:35 PM,41.0,32.0,70,30.03,10.0,Calm,Calm,-,N/A,,Mostly Cloudy,0,2012-10-22 00:35:00
7:55 PM,39.2,32.0,75,30.04,10.0,Calm,Calm,-,N/A,,Overcast,0,2012-10-22 00:55:00
8:15 PM,37.4,32.0,81,30.03,10.0,Calm,Calm,-,N/A,,Overcast,0,2012-10-22 01:15:00
8:35 PM,39.2,32.0,75,30.04,10.0,Calm,Calm,-,N/A,,Overcast,0,2012-10-22 01:35:00
8:55 PM,39.2,32.0,75,30.05,10.0,SE,3.5,-,N/A,,Overcast,130,2012-10-22 01:55:00
9:15 PM,39.2,32.0,75,30.05,10.0,Calm,Calm,-,N/A,,Overcast,0,2012-10-22 02:15:00
9:35 PM,39.2,32.0,75,30.05,10.0,SSE,4.6,-,N/A,,Overcast,150,2012-10-22 02:35:00
9:55 PM,39.2,32.0,75,30.06,10.0,SSE,5.8,-,N/A,,Overcast,150,2012-10-22 02:55:00
10:15 PM,39.2,32.0,75,30.06,10.0,Calm,Calm,-,N/A,,Overcast,0,2012-10-22 03:15:00
10:35 PM,41.0,32.0,70,30.06,10.0,Calm,Calm,-,N/A,,Overcast,0,2012-10-22 03:35:00
10:55 PM,41.0,32.0,70,30.06,10.0,Calm,Calm,-,N/A,,Overcast,0,2012-10-22 03:55:00
11:15 PM,39.2,33.8,81,30.06,10.0,Calm,Calm,-,N/A,,Overcast,0,2012-10-22 04:15:00
11:35 PM,39.2,33.8,81,30.07,10.0,Calm,Calm,-,N/A,,Overcast,0,2012-10-22 04:35:00
11:55 PM,39.2,33.8,81,30.06,10.0,Calm,Calm,-,N/A,,Scattered Clouds,0,2012-10-22 04:55:00